This is the latest recevied weather packets stored in our database for station/object K8RLH. If no packets are shown the sender has not sent any weather packets the latest 10 day(s).
| Time | Temp. | Humidity | Pressure | Rain* | Wind** | Luminosity | Snow |
|---|---|---|---|---|---|---|---|
| 1778027354 | 23.33° C | 50% | 1015.5 hPa | 0 mm | - | 0 W/m² | - |
| 1778027050 | 23.33° C | 47% | 1015.7 hPa | 0 mm | - | 0 W/m² | - |
| 1778026745 | 23.33° C | 46% | 1015.7 hPa | 0 mm | - | 1 W/m² | - |
| 1778026442 | 23.89° C | 46% | 1015.8 hPa | 0 mm | - | 1 W/m² | - |
| 1778026139 | 23.89° C | 45% | 1015.8 hPa | 0 mm | - | 2 W/m² | - |
| 1778025837 | 23.89° C | 45% | 1015.5 hPa | 0 mm | - | 3 W/m² | - |
| 1778025534 | 23.89° C | 44% | 1015.6 hPa | 0 mm | - | 4 W/m² | - |
| 1778025232 | 24.44° C | 44% | 1015.7 hPa | 0 mm | - | 6 W/m² | - |
| 1778024928 | 24.44° C | 43% | 1015.4 hPa | 0 mm | - | 9 W/m² | - |
| 1778024626 | 24.44° C | 43% | 1015.4 hPa | 0 mm | - | 11 W/m² | - |
| 1778024322 | 24.44° C | 42% | 1015.6 hPa | 0 mm | - | 18 W/m² | - |
| 1778024021 | 24.44° C | 42% | 1015.5 hPa | 0 mm | - | 17 W/m² | - |
| 1778023718 | 25° C | 41% | 1015.4 hPa | 0 mm | - | 18 W/m² | - |
| 1778023416 | 25° C | 41% | 1015.2 hPa | 0 mm | - | 16 W/m² | - |
| 1778023112 | 25° C | 41% | 1015.2 hPa | 0 mm | - | 14 W/m² | - |
| 1778022810 | 25° C | 40% | 1015.3 hPa | 0 mm | - | 15 W/m² | - |
| 1778022507 | 25.56° C | 40% | 1015.2 hPa | 0 mm | - | 23 W/m² | - |
| 1778022204 | 25.56° C | 39% | 1015.3 hPa | 0 mm | - | 60 W/m² | - |
| 1778021901 | 25.56° C | 39% | 1015.4 hPa | 0 mm | - | 50 W/m² | - |
| 1778021599 | 25.56° C | 39% | 1015.3 hPa | 0 mm | - | 39 W/m² | - |
| 1778021293 | 25.56° C | 38% | 1015.2 hPa | 0 mm | - | 19 W/m² | - |
| 1778020991 | 25.56° C | 38% | 1015.2 hPa | 0 mm | - | 31 W/m² | - |
| 1778020688 | 26.11° C | 37% | 1015.5 hPa | 0 mm | - | 33 W/m² | - |
| 1778020386 | 26.11° C | 37% | 1015.1 hPa | 0 mm | - | 31 W/m² | - |
| 1778020081 | 26.11° C | 39% | 1015.1 hPa | 0 mm | - | 31 W/m² | - |
* Rain latest hour (hover to see other rain measurements)
** Current wind speed in m/s (hover to see current wind gust speed)